GFSMA_500_temp_000.txt.gz
Temp
-15 -15 -15 -15 -15 -15 -14 -14 -14 -14 -14 -14 -14 -14 -14 -14 -14 -14 -14 -14 -15 -14 -14 -14 -14 -14 -14 -14 -14 -14 -14 -14 -14 -14 -14 -14 -14 -14 -14 -13 -13 -14 -14
-15 -15 -15 -15 -15 -15 -15 -14 -14 -15 -15 -14 -14 -14 -14 -14 -14 -14 -14 -13 -14 -14 -14 -14 -14 -14 -14 -14 -14 -14 -14 -14 -14 -14 -14 -14 -14 -14 -15 -14 -14 -14 -15
-15 -15 -15 -15 -15 -14 -14 -14 -14 -14 -14 -14 -14 -15 -15 -15 -14 -14 -13 -13 -13 -14 -13 -14 -15 -14 -14 -14 -14 -14 -14 -15 -15 -14 -14 -14 -14 -14 -15 -15 -15 -14 -15
-15 -16 -15 -15 -15 -15 -15 -15 -15 -15 -14 -14 -14 -14 -14 -14 -14 -15 -15 -15 -14 -14 -14 -14 -13 -14 -14 -14 -14 -14 -15 -15 -15 -15 -14 -14 -14 -14 -14 -14 -15 -14 -14
-16 -16 -15 -15 -15 -15 -15 -15 -15 -15 -15 -15 -14 -14 -14 -14 -14 -14 -14 -15 -15 -15 -14 -15 -14 -14 -14 -15 -15 -14 -14 -14 -15 -15 -15 -15 -14 -14 -14 -15 -15 -15 -15
-17 -16 -16 -16 -15 -15 -16 -16 -15 -15 -15 -15 -15 -15 -15 -15 -16 -15 -14 -14 -14 -14 -15 -13 -15 -15 -15 -15 -15 -15 -15 -15 -14 -15 -16 -16 -15 -15 -15 -14 -15 -15 -15
-18 -16 -16 -16 -16 -16 -17 -17 -16 -16 -16 -16 -16 -16 -16 -16 -15 -16 -16 -15 -15 -15 -14 -15 -15 -14 -16 -15 -15 -16 -16 -16 -15 -15 -15 -16 -16 -16 -15 -15 -14 -15 -15
-18 -18 -18 -17 -17 -19 -19 -19 -19 -18 -18 -18 -18 -18 -17 -17 -17 -17 -17 -17 -17 -16 -16 -15 -15 -15 -15 -16 -17 -16 -15 -16 -16 -16 -16 -16 -16 -16 -16 -16 -15 -15 -15
-18 -18 -18 -18 -18 -19 -19 -19 -19 -20 -19 -19 -20 -20 -19 -19 -19 -19 -19 -19 -19 -20 -20 -20 -18 -16 -15 -15 -16 -18 -18 -17 -17 -17 -17 -16 -17 -17 -16 -16 -16 -16 -15
-18 -18 -18 -18 -19 -19 -20 -20 -20 -20 -20 -20 -21 -21 -22 -22 -22 -20 -21 -21 -21 -21 -20 -21 -22 -21 -20 -17 -16 -17 -19 -19 -18 -17 -18 -17 -17 -17 -17 -17 -16 -16 -16
-18 -19 -19 -19 -20 -20 -21 -21 -21 -22 -22 -22 -22 -22 -22 -22 -23 -23 -22 -21 -21 -22 -23 -23 -22 -23 -22 -21 -19 -17 -19 -20 -20 -19 -18 -18 -18 -18 -17 -17 -17 -16 -16
-19 -20 -20 -21 -21 -21 -21 -21 -22 -23 -23 -23 -22 -22 -23 -23 -23 -24 -24 -23 -21 -21 -22 -23 -23 -23 -22 -23 -22 -20 -21 -20 -20 -20 -20 -19 -18 -18 -18 -18 -17 -17 -17
-20 -21 -21 -22 -22 -22 -23 -23 -23 -23 -23 -24 -24 -24 -25 -25 -25 -25 -25 -25 -24 -23 -23 -23 -24 -24 -23 -23 -24 -23 -21 -21 -22 -21 -21 -20 -19 -19 -19 -19 -18 -18 -17
-22 -22 -22 -22 -23 -24 -24 -24 -24 -24 -25 -26 -26 -26 -27 -27 -28 -28 -28 -28 -28 -27 -27 -27 -27 -26 -24 -24 -25 -25 -24 -24 -24 -21 -21 -22 -21 -20 -19 -19 -19 -19 -18
-23 -23 -24 -24 -24 -25 -25 -25 -26 -26 -26 -28 -29 -30 -30 -30 -30 -30 -30 -31 -31 -31 -30 -30 -30 -29 -28 -28 -27 -26 -25 -24 -23 -23 -22 -22 -22 -22 -21 -20 -19 -19 -19
-24 -24 -24 -25 -25 -26 -26 -27 -28 -29 -30 -30 -31 -31 -31 -31 -31 -31 -32 -32 -32 -31 -31 -30 -30 -30 -30 -29 -27 -27 -27 -26 -25 -25 -24 -23 -22 -22 -22 -21 -20 -20 -19
-25 -25 -26 -27 -27 -28 -29 -29 -30 -31 -31 -31 -31 -31 -31 -31 -31 -31 -31 -31 -31 -32 -31 -31 -30 -30 -30 -30 -29 -29 -28 -28 -27 -26 -26 -25 -23 -23 -23 -22 -21 -21 -20
-26 -27 -28 -28 -29 -30 -30 -31 -31 -31 -31 -31 -31 -31 -31 -31 -31 -31 -32 -31 -31 -31 -31 -30 -30 -30 -30 -30 -29 -29 -30 -29 -28 -28 -28 -27 -26 -25 -25 -24 -23 -22 -21
-28 -29 -29 -30 -30 -31 -31 -31 -31 -31 -31 -31 -31 -31 -31 -31 -31 -31 -31 -31 -31 -31 -31 -30 -30 -30 -30 -30 -30 -29 -29 -29 -29 -29 -28 -28 -28 -27 -26 -25 -24 -24 -23
-29 -30 -30 -31 -31 -31 -31 -31 -31 -31 -31 -31 -32 -32 -32 -32 -31 -31 -31 -31 -31 -31 -31 -31 -30 -30 -30 -30 -30 -30 -30 -29 -29 -29 -29 -28 -28 -28 -27 -27 -26 -25 -24
-30 -30 -31 -32 -32 -31 -31 -31 -32 -32 -32 -32 -33 -33 -34 -33 -33 -32 -32 -31 -31 -31 -31 -30 -30 -30 -30 -30 -30 -30 -29 -29 -29 -29 -29 -29 -28 -28 -28 -27 -27 -26 -25
-31 -32 -32 -32 -32 -32 -32 -32 -33 -33 -34 -34 -34 -34 -35 -35 -35 -34 -33 -32 -31 -31 -31 -30 -30 -30 -30 -30 -30 -30 -30 -30 -29 -29 -29 -29 -28 -28 -28 -28 -28 -27 -25
-32 -32 -32 -32 -32 -32 -32 -33 -34 -34 -34 -34 -34 -34 -34 -35 -35 -35 -35 -34 -33 -31 -30 -30 -30 -30 -30 -30 -30 -29 -29 -29 -29 -29 -29 -29 -29 -28 -28 -28 -27 -27 -27
-33 -32 -32 -32 -32 -33 -33 -33 -34 -34 -34 -34 -35 -35 -35 -35 -35 -35 -35 -34 -33 -32 -31 -30 -30 -30 -30 -30 -29 -29 -29 -29 -29 -29 -29 -29 -29 -29 -28 -28 -28 -27 -27
-33 -33 -33 -33 -33 -33 -34 -34 -34 -34 -34 -35 -35 -36 -36 -36 -36 -35 -35 -35 -34 -32 -30 -30 -30 -29 -29 -29 -29 -29 -29 -29 -29 -29 -30 -29 -29 -29 -29 -28 -28 -28 -27
-33 -33 -33 -33 -33 -34 -34 -34 -34 -35 -35 -35 -36 -36 -36 -36 -36 -36 -35 -34 -34 -32 -30 -29 -29 -29 -29 -29 -29 -30 -30 -30 -30 -30 -30 -30 -30 -30 -29 -29 -29 -29 -28

GFSMA_500_temp_003.txt.gz
Temp
-15 -15 -15 -15 -15 -14 -14 -14 -14 -14 -14 -14 -13 -14 -14 -14 -14 -13 -13 -13 -14 -14 -14 -14 -14 -14 -14 -14 -14 -14 -15 -15 -14 -14 -14 -14 -14 -14 -13 -14 -14 -14 -14
-15 -15 -15 -15 -15 -15 -15 -14 -14 -14 -14 -14 -14 -14 -14 -14 -14 -14 -13 -14 -13 -13 -14 -14 -14 -14 -14 -14 -13 -14 -14 -15 -15 -15 -15 -15 -14 -14 -14 -14 -14 -14 -15
-16 -16 -16 -16 -15 -15 -15 -14 -14 -14 -14 -14 -14 -13 -14 -14 -15 -14 -14 -14 -14 -14 -14 -14 -14 -14 -14 -14 -14 -14 -14 -14 -14 -15 -15 -15 -15 -14 -14 -14 -14 -15 -15
-16 -16 -16 -16 -16 -15 -14 -14 -14 -14 -14 -14 -14 -14 -14 -14 -14 -14 -15 -15 -15 -15 -15 -14 -14 -14 -15 -15 -14 -14 -14 -14 -14 -15 -15 -15 -15 -15 -15 -14 -14 -14 -14
-16 -16 -16 -16 -16 -15 -15 -15 -15 -15 -15 -15 -15 -14 -14 -14 -14 -14 -14 -14 -14 -14 -15 -15 -16 -15 -15 -15 -15 -14 -14 -14 -14 -14 -15 -15 -15 -15 -15 -16 -15 -14 -14
-16 -17 -16 -16 -16 -17 -16 -16 -16 -16 -16 -15 -15 -15 -15 -15 -15 -15 -15 -15 -15 -14 -14 -14 -14 -15 -16 -15 -15 -15 -15 -14 -15 -15 -15 -15 -15 -15 -15 -15 -15 -15 -15
-17 -17 -17 -17 -16 -17 -17 -17 -17 -17 -17 -17 -17 -17 -16 -16 -16 -16 -16 -16 -16 -15 -15 -14 -14 -14 -15 -16 -16 -16 -16 -16 -15 -15 -16 -16 -16 -16 -15 -15 -15 -15 -15
-16 -16 -16 -16 -17 -17 -17 -17 -17 -17 -18 -18 -18 -18 -17 -18 -18 -18 -18 -18 -18 -17 -16 -16 -15 -15 -15 -15 -15 -16 -16 -16 -17 -16 -16 -16 -16 -16 -16 -16 -16 -16 -15
-17 -17 -17 -18 -17 -17 -18 -18 -18 -19 -19 -19 -20 -20 -19 -19 -19 -19 -20 -20 -20 -20 -20 -19 -18 -17 -17 -16 -16 -17 -17 -18 -17 -17 -17 -17 -17 -16 -16 -16 -16 -16 -16
-18 -18 -18 -19 -19 -19 -19 -19 -19 -20 -20 -20 -21 -21 -22 -22 -21 -20 -21 -21 -22 -22 -21 -21 -21 -21 -21 -20 -20 -19 -19 -20 -18 -18 -18 -18 -17 -17 -17 -17 -17 -16 -16
-18 -18 -19 -19 -19 -19 -20 -21 -21 -21 -22 -22 -22 -22 -22 -23 -23 -23 -22 -21 -22 -22 -22 -22 -22 -22 -22 -22 -22 -22 -22 -21 -21 -20 -20 -20 -19 -18 -18 -18 -17 -17 -17
-19 -19 -19 -20 -20 -21 -21 -22 -22 -23 -23 -23 -24 -24 -23 -23 -23 -24 -24 -23 -22 -22 -23 -23 -23 -23 -23 -23 -23 -23 -23 -23 -22 -23 -21 -21 -21 -20 -19 -19 -18 -18 -17
-19 -20 -20 -21 -21 -22 -23 -23 -24 -24 -24 -24 -24 -24 -24 -25 -25 -25 -25 -25 -25 -25 -25 -25 -26 -26 -25 -24 -24 -24 -24 -24 -23 -24 -23 -22 -22 -22 -20 -19 -19 -19 -18
-21 -22 -22 -23 -23 -23 -24 -24 -25 -25 -25 -25 -26 -26 -27 -28 -29 -29 -30 -30 -29 -29 -29 -29 -29 -29 -28 -27 -26 -26 -25 -25 -24 -24 -24 -25 -24 -23 -22 -20 -20 -20 -19
-23 -23 -23 -24 -24 -25 -26 -26 -26 -27 -28 -28 -29 -30 -30 -30 -31 -31 -31 -31 -31 -31 -31 -32 -31 -31 -31 -30 -29 -28 -27 -26 -26 -25 -25 -25 -25 -24 -23 -22 -20 -20 -20
-23 -23 -24 -25 -26 -27 -28 -29 -29 -30 -30 -31 -31 -31 -31 -31 -31 -31 -31 -31 -31 -31 -31 -32 -32 -32 -31 -31 -30 -30 -29 -28 -27 -27 -27 -26 -25 -25 -25 -23 -21 -20 -20
-25 -26 -27 -28 -29 -29 -30 -30 -31 -31 -31 -32 -31 -31 -31 -31 -31 -31 -31 -31 -31 -31 -31 -31 -31 -32 -32 -31 -30 -31 -31 -29 -29 -28 -28 -28 -27 -27 -26 -25 -23 -22 -21
-27 -28 -30 -30 -30 -31 -31 -31 -32 -32 -32 -32 -31 -32 -31 -31 -31 -31 -31 -32 -32 -31 -31 -30 -31 -32 -32 -31 -31 -31 -31 -31 -31 -30 -29 -29 -28 -28 -28 -26 -25 -23 -22
-28 -30 -31 -31 -31 -31 -32 -32 -32 -32 -32 -32 -31 -31 -32 -32 -32 -33 -32 -32 -32 -31 -31 -31 -30 -31 -31 -32 -31 -31 -31 -31 -31 -30 -30 -29 -29 -29 -28 -27 -27 -26 -24
-30 -31 -32 -32 -33 -32 -32 -32 -32 -32 -32 -32 -32 -33 -33 -33 -34 -34 -34 -33 -33 -32 -32 -31 -31 -31 -31 -31 -31 -31 -30 -31 -30 -30 -30 -30 -29 -29 -28 -28 -28 -27 -26
-31 -32 -32 -33 -33 -32 -32 -32 -32 -32 -33 -33 -33 -34 -34 -34 -34 -34 -34 -34 -34 -33 -33 -32 -31 -31 -31 -31 -31 -31 -30 -30 -30 -30 -30 -29 -29 -29 -29 -29 -29 -29 -28
-32 -32 -33 -33 -32 -32 -32 -32 -33 -33 -33 -33 -33 -34 -34 -34 -34 -34 -34 -34 -35 -35 -34 -33 -31 -31 -31 -31 -31 -31 -31 -31 -31 -30 -30 -30 -30 -29 -29 -29 -29 -29 -29
-32 -32 -33 -33 -32 -32 -32 -33 -33 -33 -33 -34 -34 -35 -35 -35 -35 -35 -35 -35 -35 -35 -35 -34 -32 -31 -31 -31 -31 -31 -30 -30 -30 -30 -30 -30 -29 -29 -29 -29 -29 -29 -28
-33 -33 -33 -33 -33 -33 -33 -33 -34 -34 -34 -35 -35 -35 -36 -36 -36 -36 -36 -36 -36 -35 -35 -34 -32 -32 -30 -30 -30 -30 -30 -30 -30 -30 -30 -30 -30 -30 -30 -29 -29 -29 -29
-33 -33 -33 -33 -33 -33 -34 -34 -34 -34 -34 -34 -35 -35 -36 -36 -37 -37 -37 -37 -36 -36 -35 -34 -32 -31 -30 -30 -30 -30 -30 -29 -29 -30 -30 -29 -30 -29 -29 -29 -29 -29 -28
-33 -33 -33 -33 -33 -33 -34 -34 -34 -34 -34 -34 -34 -35 -35 -36 -36 -36 -36 -36 -36 -35 -35 -33 -31 -30 -30 -30 -30 -30 -30 -30 -30 -30 -30 -29 -30 -30 -30 -30 -29 -29 -29

GFSMA_500_temp_006.txt.gz
Temp
-15 -15 -15 -14 -14 -14 -14 -14 -14 -14 -14 -14 -14 -14 -14 -14 -14 -13 -13 -14 -15 -15 -14 -15 -14 -14 -14 -14 -14 -14 -15 -15 -15 -15 -15 -15 -15 -14 -14 -15 -15 -14 -13
-16 -15 -15 -15 -15 -15 -15 -15 -15 -14 -14 -14 -14 -14 -15 -15 -15 -15 -15 -14 -14 -14 -14 -14 -14 -14 -14 -14 -14 -14 -14 -15 -15 -15 -15 -15 -15 -15 -15 -15 -15 -14 -14
-16 -16 -17 -16 -16 -16 -16 -15 -15 -14 -14 -14 -14 -14 -14 -15 -15 -15 -15 -15 -16 -16 -15 -15 -14 -15 -15 -14 -14 -14 -14 -14 -15 -15 -15 -15 -15 -15 -15 -15 -15 -15 -14
-16 -16 -16 -16 -16 -16 -16 -16 -15 -15 -15 -15 -15 -15 -15 -15 -15 -15 -15 -15 -15 -15 -15 -15 -16 -15 -15 -15 -15 -14 -14 -14 -14 -15 -15 -15 -15 -15 -15 -15 -15 -15 -15
-17 -16 -16 -16 -16 -15 -16 -16 -15 -15 -15 -15 -15 -15 -15 -15 -15 -15 -15 -15 -15 -15 -15 -15 -15 -15 -15 -16 -15 -15 -15 -15 -15 -15 -15 -15 -15 -14 -15 -15 -15 -15 -15
-17 -17 -17 -16 -16 -17 -17 -17 -16 -16 -16 -16 -16 -16 -16 -16 -16 -16 -15 -15 -15 -15 -15 -14 -14 -15 -15 -15 -16 -16 -16 -15 -15 -15 -15 -15 -15 -15 -15 -15 -15 -15 -15
-17 -17 -17 -18 -17 -17 -17 -16 -16 -16 -16 -16 -16 -16 -16 -16 -17 -17 -17 -16 -16 -16 -15 -15 -15 -15 -15 -15 -15 -16 -17 -17 -16 -15 -15 -15 -15 -15 -14 -14 -15 -15 -15
-17 -18 -17 -17 -17 -18 -18 -17 -17 -17 -18 -18 -18 -18 -17 -17 -18 -18 -18 -18 -18 -18 -17 -17 -16 -16 -16 -16 -17 -17 -17 -18 -18 -17 -16 -16 -15 -15 -15 -15 -15 -15 -15
-18 -18 -18 -18 -18 -18 -18 -18 -18 -18 -19 -19 -19 -19 -19 -19 -18 -19 -20 -20 -20 -20 -20 -20 -19 -19 -19 -18 -18 -18 -18 -18 -18 -19 -18 -17 -16 -16 -16 -16 -15 -15 -15
-18 -18 -19 -19 -18 -18 -19 -19 -19 -20 -20 -20 -20 -20 -20 -21 -20 -20 -20 -21 -21 -21 -22 -22 -21 -21 -20 -20 -20 -20 -20 -20 -20 -20 -20 -20 -18 -17 -17 -16 -16 -16 -16
-18 -18 -18 -19 -19 -19 -20 -21 -21 -21 -21 -22 -22 -22 -22 -22 -22 -22 -21 -21 -21 -21 -22 -22 -22 -21 -22 -21 -21 -21 -21 -22 -22 -21 -21 -22 -21 -19 -18 -17 -17 -16 -16
-19 -19 -19 -20 -20 -21 -22 -22 -23 -23 -23 -23 -23 -24 -24 -24 -23 -23 -23 -22 -22 -22 -22 -23 -23 -23 -22 -22 -22 -22 -22 -23 -23 -23 -23 -22 -22 -21 -21 -20 -18 -17 -17
-19 -20 -21 -21 -22 -23 -23 -23 -24 -24 -25 -25 -25 -25 -26 -26 -26 -26 -25 -25 -24 -24 -24 -24 -24 -24 -24 -24 -23 -23 -22 -23 -24 -24 -24 -23 -23 -22 -22 -22 -20 -19 -18
-20 -21 -22 -22 -23 -23 -24 -24 -25 -25 -26 -27 -28 -28 -28 -29 -29 -29 -29 -30 -29 -28 -28 -28 -29 -29 -28 -27 -26 -26 -25 -24 -24 -25 -24 -23 -24 -23 -24 -23 -21 -20 -19
-22 -23 -23 -23 -23 -24 -25 -26 -28 -29 -29 -30 -30 -31 -31 -31 -31 -31 -31 -31 -32 -31 -30 -31 -31 -31 -31 -31 -30 -29 -28 -27 -27 -26 -26 -24 -23 -24 -25 -24 -23 -21 -21
-23 -23 -24 -24 -26 -28 -30 -30 -30 -31 -31 -31 -31 -31 -32 -32 -32 -32 -32 -32 -32 -32 -32 -31 -32 -32 -32 -32 -32 -31 -30 -30 -29 -28 -27 -25 -25 -25 -24 -24 -24 -24 -23
-24 -25 -26 -27 -30 -31 -31 -31 -32 -32 -32 -32 -33 -32 -32 -32 -32 -32 -32 -31 -31 -32 -32 -31 -31 -32 -32 -32 -32 -32 -32 -32 -31 -30 -29 -26 -26 -25 -25 -26 -25 -25 -24
-25 -27 -29 -30 -31 -31 -31 -32 -32 -33 -33 -32 -32 -32 -32 -32 -32 -32 -32 -32 -32 -32 -32 -32 -31 -31 -32 -32 -32 -32 -32 -32 -31 -31 -30 -30 -26 -26 -27 -27 -26 -25 -25
-26 -30 -30 -32 -32 -31 -32 -32 -32 -33 -32 -32 -32 -32 -32 -32 -32 -33 -33 -33 -33 -32 -32 -32 -32 -32 -31 -32 -32 -32 -32 -32 -31 -31 -31 -31 -30 -29 -28 -28 -27 -27 -26
-29 -30 -31 -32 -31 -32 -32 -33 -33 -32 -32 -33 -33 -33 -33 -33 -33 -33 -33 -33 -34 -34 -34 -33 -32 -32 -32 -31 -32 -32 -32 -32 -31 -31 -31 -31 -31 -30 -30 -28 -28 -28 -27
-30 -32 -32 -32 -33 -33 -33 -33 -33 -33 -33 -33 -33 -33 -33 -34 -34 -35 -34 -34 -34 -34 -34 -34 -34 -33 -33 -32 -31 -32 -32 -32 -31 -31 -31 -31 -31 -31 -31 -30 -30 -29 -28
-31 -33 -33 -33 -34 -33 -33 -33 -33 -33 -33 -33 -34 -34 -34 -35 -35 -35 -36 -36 -35 -35 -35 -34 -34 -34 -33 -32 -32 -31 -31 -32 -32 -31 -31 -31 -31 -31 -30 -30 -30 -30 -30
-32 -34 -34 -34 -33 -33 -33 -33 -33 -33 -33 -34 -34 -34 -34 -34 -35 -35 -36 -36 -36 -36 -35 -35 -35 -35 -34 -33 -32 -31 -31 -31 -31 -31 -31 -31 -31 -30 -31 -30 -30 -30 -29
-33 -34 -33 -33 -33 -33 -33 -33 -33 -33 -34 -34 -34 -34 -34 -34 -35 -36 -36 -37 -37 -37 -36 -36 -35 -35 -35 -34 -32 -31 -31 -31 -31 -31 -31 -31 -31 -30 -30 -30 -30 -30 -30
-33 -33 -33 -33 -33 -33 -33 -33 -33 -33 -34 -34 -34 -34 -34 -35 -35 -36 -36 -36 -37 -37 -37 -36 -35 -35 -35 -33 -31 -30 -30 -31 -30 -31 -31 -30 -31 -30 -30 -30 -30 -30 -30
-33 -33 -33 -33 -33 -33 -33 -33 -33 -33 -34 -34 -34 -34 -34 -35 -35 -36 -36 -36 -36 -37 -36 -36 -35 -35 -34 -32 -30 -30 -30 -30 -30 -31 -31 -30 -31 -30 -30 -30 -30 -30 -29

GFSMA_500_temp_009.txt.gz
Temp
-15 -14 -15 -15 -15 -15 -15 -15 -15 -15 -15 -15 -15 -16 -16 -16 -15 -15 -15 -14 -14 -14 -15 -15 -15 -14 -14 -14 -14 -14 -14 -14 -14 -15 -15 -15 -15 -14 -15 -15 -14 -13 -14
-14 -15 -15 -15 -15 -16 -15 -15 -15 -15 -15 -15 -15 -15 -15 -15 -15 -16 -15 -15 -15 -15 -15 -15 -14 -15 -15 -14 -14 -14 -14 -14 -14 -14 -14 -14 -15 -14 -15 -15 -15 -14 -15
-15 -16 -16 -16 -16 -16 -16 -16 -16 -16 -16 -16 -16 -16 -15 -15 -15 -15 -15 -15 -15 -15 -15 -16 -15 -15 -15 -15 -14 -14 -14 -14 -14 -14 -14 -14 -14 -14 -15 -15 -15 -15 -15
-16 -16 -16 -16 -16 -16 -16 -16 -16 -16 -16 -16 -16 -16 -16 -16 -16 -16 -16 -15 -15 -15 -15 -15 -15 -16 -16 -15 -15 -15 -14 -14 -14 -14 -14 -14 -15 -15 -15 -15 -15 -15 -15
-17 -16 -16 -17 -17 -16 -16 -16 -16 -16 -16 -16 -16 -16 -16 -16 -16 -16 -16 -15 -15 -15 -15 -15 -15 -15 -15 -15 -16 -16 -15 -15 -14 -14 -14 -14 -14 -15 -15 -15 -15 -15 -15
-17 -17 -17 -17 -16 -16 -16 -16 -16 -16 -17 -17 -17 -17 -17 -17 -17 -17 -16 -16 -16 -16 -16 -16 -15 -15 -15 -15 -16 -16 -16 -16 -15 -14 -15 -15 -15 -14 -15 -15 -15 -15 -15
-17 -17 -17 -17 -17 -17 -17 -17 -17 -17 -18 -18 -18 -17 -17 -18 -18 -18 -18 -18 -17 -17 -17 -16 -17 -17 -16 -16 -16 -16 -16 -16 -16 -16 -15 -15 -15 -15 -15 -14 -15 -15 -15
-17 -17 -18 -17 -18 -18 -18 -18 -18 -19 -19 -19 -19 -19 -18 -18 -19 -19 -19 -19 -19 -19 -19 -19 -18 -18 -18 -17 -18 -17 -17 -16 -16 -17 -17 -16 -15 -15 -15 -15 -15 -15 -15
-18 -18 -18 -18 -18 -19 -19 -19 -19 -19 -20 -20 -20 -20 -20 -20 -20 -20 -21 -21 -20 -20 -21 -21 -21 -20 -20 -19 -19 -19 -18 -18 -18 -18 -18 -18 -18 -16 -15 -15 -15 -15 -15
-18 -19 -19 -19 -19 -19 -19 -19 -20 -20 -20 -21 -21 -22 -22 -22 -21 -20 -21 -21 -21 -21 -22 -22 -22 -22 -22 -22 -21 -20 -20 -20 -20 -20 -19 -19 -19 -19 -17 -16 -15 -15 -15
-19 -19 -19 -19 -19 -19 -20 -20 -21 -22 -22 -23 -23 -23 -23 -24 -24 -23 -23 -22 -22 -22 -23 -23 -23 -23 -23 -23 -23 -23 -22 -21 -21 -21 -21 -20 -20 -20 -19 -18 -17 -16 -16
-19 -19 -19 -19 -20 -20 -21 -22 -22 -23 -23 -24 -24 -25 -25 -26 -26 -26 -26 -25 -25 -24 -23 -24 -24 -24 -24 -24 -23 -23 -23 -23 -22 -23 -22 -21 -21 -21 -21 -21 -20 -18 -17
-18 -19 -20 -20 -21 -22 -22 -23 -23 -23 -24 -25 -26 -27 -28 -28 -29 -29 -29 -28 -28 -28 -27 -27 -27 -26 -26 -25 -24 -24 -23 -24 -23 -23 -23 -23 -22 -22 -22 -22 -22 -21 -19
-19 -20 -21 -22 -22 -23 -22 -23 -24 -24 -26 -29 -29 -30 -30 -31 -31 -31 -31 -31 -30 -30 -30 -30 -29 -29 -29 -28 -27 -26 -25 -25 -25 -25 -24 -23 -23 -23 -23 -22 -22 -22 -21
-20 -21 -21 -22 -23 -24 -24 -25 -27 -29 -30 -30 -31 -31 -31 -32 -32 -32 -32 -32 -32 -31 -31 -32 -31 -32 -31 -31 -30 -29 -28 -28 -27 -26 -26 -25 -24 -24 -24 -24 -23 -23 -22
-20 -21 -22 -23 -24 -25 -27 -30 -30 -31 -31 -32 -32 -31 -31 -32 -32 -32 -32 -32 -32 -32 -32 -32 -32 -32 -32 -32 -32 -32 -32 -31 -31 -29 -28 -27 -26 -25 -25 -24 -24 -24 -23
-22 -23 -23 -24 -26 -28 -30 -31 -32 -32 -32 -32 -32 -32 -32 -32 -32 -32 -32 -32 -32 -32 -32 -32 -32 -32 -32 -32 -32 -32 -32 -32 -32 -31 -31 -30 -28 -27 -26 -24 -24 -25 -24
-23 -24 -24 -27 -29 -30 -31 -32 -33 -32 -33 -32 -33 -32 -32 -32 -32 -32 -32 -32 -33 -33 -32 -32 -32 -32 -32 -32 -32 -32 -32 -32 -32 -32 -32 -31 -30 -29 -27 -26 -25 -25 -25
-24 -24 -27 -29 -30 -31 -33 -33 -33 -33 -32 -33 -32 -32 -33 -32 -33 -33 -33 -33 -34 -34 -34 -33 -33 -33 -33 -33 -32 -32 -32 -33 -32 -32 -32 -32 -31 -31 -30 -28 -27 -26 -25
-24 -26 -29 -31 -31 -32 -34 -33 -33 -33 -33 -33 -33 -32 -32 -33 -33 -34 -34 -34 -34 -34 -35 -35 -34 -34 -33 -34 -33 -33 -32 -32 -32 -32 -32 -32 -32 -31 -31 -30 -28 -26 -26
-27 -29 -30 -31 -32 -33 -33 -33 -33 -33 -33 -33 -32 -32 -33 -33 -34 -34 -34 -34 -34 -35 -35 -36 -35 -34 -34 -34 -34 -33 -33 -32 -32 -32 -32 -32 -32 -31 -31 -31 -29 -28 -26
-29 -31 -31 -32 -32 -33 -33 -33 -33 -33 -33 -33 -33 -33 -33 -34 -34 -34 -34 -34 -35 -35 -36 -36 -36 -35 -34 -34 -34 -34 -33 -32 -32 -32 -31 -32 -32 -31 -31 -31 -31 -30 -30
-31 -32 -32 -32 -33 -33 -33 -33 -33 -33 -33 -33 -33 -33 -33 -34 -34 -34 -35 -35 -36 -36 -36 -36 -37 -36 -35 -35 -34 -34 -34 -33 -32 -32 -31 -32 -32 -32 -31 -31 -31 -31 -30
-32 -32 -33 -33 -32 -33 -33 -33 -33 -33 -33 -33 -33 -33 -34 -34 -34 -34 -35 -35 -36 -36 -36 -36 -37 -36 -36 -35 -35 -34 -34 -33 -32 -32 -31 -31 -32 -31 -31 -31 -31 -31 -31
-32 -33 -33 -32 -32 -33 -33 -33 -33 -33 -33 -33 -33 -33 -34 -34 -34 -34 -35 -35 -36 -37 -37 -37 -37 -37 -36 -36 -35 -35 -34 -33 -32 -31 -31 -31 -31 -31 -31 -31 -31 -31 -31
-32 -33 -32 -32 -32 -33 -33 -33 -33 -33 -33 -33 -34 -34 -34 -34 -34 -34 -34 -35 -36 -36 -36 -36 -37 -37 -36 -36 -35 -35 -34 -32 -31 -31 -31 -31 -31 -31 -31 -31 -31 -31 -31

GFSMA_500_temp_012.txt.gz
Temp
-16 -15 -15 -15 -15 -15 -15 -16 -16 -16 -16 -16 -16 -16 -16 -16 -16 -16 -16 -16 -16 -16 -16 -16 -15 -15 -15 -15 -15 -14 -14 -14 -14 -15 -14 -14 -14 -15 -15 -15 -14 -14 -13
-16 -16 -15 -15 -16 -16 -16 -16 -16 -16 -16 -16 -16 -16 -16 -16 -16 -16 -16 -16 -16 -16 -16 -16 -16 -15 -15 -15 -15 -14 -15 -14 -14 -14 -14 -14 -14 -14 -15 -15 -15 -15 -14
-16 -15 -15 -16 -16 -16 -16 -16 -16 -16 -16 -16 -16 -16 -16 -16 -16 -15 -15 -15 -15 -15 -15 -15 -15 -16 -16 -15 -15 -15 -14 -14 -15 -14 -14 -14 -14 -14 -14 -15 -14 -15 -14
-16 -16 -16 -16 -17 -16 -16 -16 -16 -16 -16 -16 -16 -16 -16 -17 -16 -16 -16 -16 -15 -15 -15 -15 -15 -15 -15 -15 -15 -15 -15 -15 -14 -14 -15 -14 -14 -15 -14 -14 -15 -14 -15
-16 -17 -17 -16 -16 -17 -16 -17 -17 -17 -17 -17 -17 -17 -17 -17 -17 -17 -17 -16 -16 -16 -16 -16 -15 -15 -15 -16 -15 -15 -15 -15 -16 -15 -14 -14 -14 -14 -14 -14 -14 -14 -15
-17 -17 -17 -17 -17 -17 -17 -17 -18 -18 -17 -17 -17 -17 -18 -18 -18 -18 -18 -17 -17 -17 -16 -16 -16 -16 -16 -15 -16 -16 -15 -15 -15 -16 -15 -15 -15 -14 -14 -14 -14 -15 -15
-17 -17 -17 -17 -17 -17 -17 -18 -18 -18 -18 -18 -18 -18 -18 -19 -19 -19 -19 -18 -18 -18 -18 -17 -17 -17 -17 -17 -17 -16 -17 -16 -16 -16 -16 -16 -16 -15 -15 -15 -15 -15 -15
-17 -17 -17 -17 -17 -18 -18 -18 -18 -19 -19 -19 -19 -19 -19 -19 -20 -20 -20 -20 -20 -20 -20 -20 -19 -19 -18 -18 -18 -18 -18 -18 -18 -17 -17 -17 -16 -16 -15 -15 -15 -15 -15
-17 -18 -18 -19 -19 -19 -19 -19 -19 -19 -19 -19 -20 -20 -20 -20 -20 -20 -21 -21 -21 -21 -22 -22 -21 -21 -21 -20 -19 -19 -19 -19 -19 -19 -18 -18 -18 -17 -16 -15 -15 -15 -15
-19 -20 -20 -19 -19 -19 -19 -19 -19 -19 -19 -20 -20 -21 -21 -22 -22 -22 -22 -23 -23 -23 -23 -23 -23 -22 -22 -22 -21 -21 -20 -20 -20 -20 -20 -20 -19 -19 -18 -17 -16 -15 -16
-18 -18 -18 -18 -18 -18 -19 -19 -19 -20 -20 -21 -22 -23 -23 -24 -24 -25 -25 -25 -25 -25 -25 -25 -25 -24 -24 -23 -23 -22 -22 -22 -22 -22 -21 -21 -21 -20 -19 -19 -18 -16 -16
-18 -18 -18 -18 -18 -19 -19 -20 -21 -22 -22 -23 -24 -24 -25 -26 -27 -28 -28 -28 -28 -29 -28 -27 -27 -27 -27 -26 -25 -25 -24 -24 -24 -23 -23 -22 -22 -22 -21 -21 -20 -19 -17
-18 -18 -18 -19 -19 -20 -20 -22 -23 -23 -23 -24 -26 -27 -28 -29 -30 -30 -31 -31 -31 -31 -31 -30 -30 -30 -30 -29 -28 -27 -26 -26 -25 -25 -24 -24 -23 -22 -22 -22 -21 -21 -19
-18 -19 -19 -20 -20 -21 -22 -23 -24 -24 -27 -27 -29 -30 -31 -31 -32 -31 -32 -32 -32 -32 -32 -32 -32 -32 -31 -31 -31 -30 -29 -27 -27 -26 -26 -25 -24 -23 -22 -22 -22 -22 -21
-19 -19 -20 -20 -21 -22 -23 -24 -25 -26 -27 -30 -31 -32 -32 -32 -33 -32 -32 -33 -32 -31 -31 -32 -32 -32 -32 -32 -32 -32 -31 -30 -29 -28 -27 -26 -25 -25 -24 -23 -23 -23 -23
-20 -20 -20 -21 -22 -24 -24 -25 -27 -29 -31 -32 -32 -33 -33 -33 -33 -33 -32 -32 -32 -32 -31 -31 -32 -32 -32 -32 -32 -32 -32 -32 -32 -31 -29 -28 -27 -26 -25 -24 -23 -23 -23
-20 -21 -22 -23 -24 -25 -26 -28 -30 -31 -32 -32 -33 -33 -33 -33 -32 -32 -32 -32 -32 -32 -32 -31 -32 -32 -32 -32 -32 -32 -32 -32 -32 -32 -32 -31 -30 -28 -26 -25 -24 -24 -23
-21 -22 -23 -24 -26 -26 -28 -30 -31 -32 -33 -33 -33 -33 -33 -33 -32 -32 -32 -33 -33 -33 -33 -33 -33 -34 -33 -33 -32 -32 -32 -32 -32 -32 -32 -32 -32 -31 -29 -27 -26 -25 -24
-22 -23 -24 -26 -27 -28 -30 -31 -32 -32 -33 -33 -33 -33 -33 -32 -32 -32 -33 -33 -34 -34 -34 -34 -34 -34 -34 -34 -33 -33 -33 -33 -32 -32 -32 -32 -32 -32 -31 -29 -28 -26 -25
-23 -24 -26 -27 -29 -30 -31 -32 -32 -33 -33 -33 -33 -33 -33 -32 -32 -33 -33 -34 -34 -34 -34 -34 -34 -34 -35 -35 -35 -34 -34 -34 -33 -33 -32 -32 -32 -32 -32 -31 -30 -29 -28
-24 -26 -27 -29 -30 -31 -32 -32 -32 -33 -33 -33 -33 -33 -33 -32 -33 -33 -33 -34 -34 -34 -35 -35 -35 -35 -35 -35 -35 -35 -34 -34 -34 -34 -33 -33 -32 -32 -32 -31 -31 -31 -29
-26 -27 -28 -30 -31 -32 -32 -32 -33 -33 -33 -33 -33 -33 -33 -33 -33 -33 -34 -34 -34 -35 -35 -36 -36 -36 -36 -36 -36 -36 -35 -34 -34 -34 -33 -32 -33 -32 -32 -32 -31 -31 -30
-27 -29 -30 -31 -32 -32 -33 -33 -32 -33 -33 -33 -33 -33 -33 -33 -33 -34 -34 -34 -34 -35 -36 -36 -36 -37 -37 -37 -37 -36 -36 -35 -34 -34 -33 -32 -32 -33 -32 -32 -32 -31 -31
-29 -30 -31 -32 -33 -33 -32 -32 -33 -33 -33 -33 -33 -33 -33 -33 -33 -34 -34 -34 -35 -35 -36 -37 -37 -37 -37 -38 -37 -36 -36 -35 -34 -34 -33 -32 -32 -32 -32 -32 -32 -32 -31
-30 -31 -32 -33 -33 -33 -32 -32 -33 -33 -33 -33 -33 -33 -33 -33 -33 -34 -34 -34 -35 -35 -36 -36 -36 -37 -37 -37 -37 -36 -36 -35 -34 -34 -34 -33 -32 -32 -32 -32 -32 -32 -31
-31 -32 -32 -33 -33 -33 -33 -33 -33 -33 -33 -33 -33 -33 -33 -33 -33 -34 -34 -34 -34 -35 -35 -35 -36 -37 -37 -37 -37 -36 -35 -35 -34 -34 -34 -33 -32 -31 -31 -32 -32 -31 -31

GFSMA_500_temp_015.txt.gz
Temp
-15 -16 -16 -16 -16 -15 -15 -16 -16 -16 -16 -16 -16 -16 -16 -16 -16 -16 -16 -16 -16 -16 -16 -16 -16 -15 -15 -15 -15 -15 -14 -14 -14 -15 -15 -15 -14 -15 -15 -15 -14 -14 -14
-16 -17 -16 -16 -16 -16 -16 -16 -16 -16 -16 -16 -16 -16 -16 -16 -16 -16 -16 -16 -16 -16 -16 -16 -16 -16 -16 -15 -15 -15 -15 -15 -15 -14 -14 -15 -15 -14 -14 -15 -15 -15 -14
-17 -16 -17 -16 -16 -16 -16 -16 -16 -16 -16 -16 -16 -16 -16 -16 -16 -16 -16 -16 -16 -16 -16 -16 -16 -16 -16 -16 -15 -15 -15 -15 -14 -15 -15 -14 -14 -15 -15 -14 -15 -15 -15
-17 -17 -17 -17 -17 -16 -17 -17 -17 -16 -16 -16 -16 -16 -16 -16 -16 -16 -16 -16 -16 -16 -16 -16 -16 -16 -16 -16 -16 -15 -15 -15 -15 -14 -14 -15 -14 -14 -14 -15 -15 -15 -16
-17 -17 -17 -17 -17 -17 -17 -17 -17 -17 -17 -17 -17 -17 -17 -17 -17 -17 -17 -16 -16 -16 -16 -16 -16 -15 -15 -16 -16 -16 -15 -15 -15 -15 -15 -15 -15 -15 -14 -14 -15 -15 -15
-18 -18 -17 -17 -17 -17 -17 -17 -17 -17 -17 -17 -18 -18 -18 -18 -18 -18 -18 -18 -18 -17 -17 -17 -16 -16 -16 -16 -16 -16 -16 -16 -15 -15 -15 -15 -15 -15 -15 -15 -14 -15 -15
-18 -18 -18 -18 -18 -17 -17 -17 -17 -18 -18 -18 -18 -18 -19 -19 -19 -19 -19 -19 -19 -19 -19 -18 -18 -17 -17 -17 -17 -16 -16 -16 -16 -16 -15 -15 -15 -15 -15 -15 -15 -14 -14
-18 -18 -18 -18 -18 -18 -18 -18 -19 -19 -19 -19 -19 -19 -19 -19 -19 -20 -20 -20 -20 -21 -20 -20 -20 -19 -18 -18 -17 -17 -17 -17 -17 -16 -16 -16 -16 -16 -15 -15 -15 -15 -15
-18 -18 -18 -18 -19 -19 -19 -18 -18 -19 -19 -19 -19 -20 -20 -20 -20 -21 -21 -21 -21 -22 -22 -22 -22 -22 -22 -21 -20 -18 -18 -18 -18 -18 -18 -17 -16 -16 -17 -16 -16 -15 -15
-19 -19 -19 -19 -18 -18 -18 -18 -18 -18 -19 -19 -20 -20 -20 -21 -21 -21 -22 -23 -23 -24 -24 -24 -24 -24 -23 -23 -22 -22 -22 -20 -19 -19 -19 -19 -19 -18 -17 -18 -17 -16 -16
-18 -18 -18 -18 -18 -18 -18 -18 -19 -19 -19 -20 -21 -22 -22 -23 -24 -25 -25 -25 -26 -27 -27 -27 -27 -27 -26 -25 -24 -23 -23 -23 -22 -21 -21 -20 -20 -20 -19 -18 -19 -18 -16
-18 -18 -18 -18 -18 -18 -19 -19 -19 -20 -21 -22 -23 -23 -24 -25 -26 -28 -29 -30 -30 -30 -30 -30 -30 -30 -30 -29 -28 -26 -25 -24 -24 -23 -23 -22 -22 -21 -21 -20 -19 -19 -19
-18 -18 -18 -18 -18 -19 -19 -20 -21 -22 -23 -23 -24 -25 -26 -27 -29 -30 -31 -31 -32 -32 -32 -32 -32 -32 -31 -32 -31 -30 -28 -27 -26 -25 -25 -24 -23 -23 -23 -22 -22 -21 -20
-19 -19 -19 -19 -20 -20 -20 -21 -22 -23 -24 -25 -26 -27 -29 -30 -31 -31 -32 -33 -32 -32 -32 -32 -32 -32 -32 -32 -32 -32 -31 -30 -29 -28 -27 -26 -25 -24 -24 -24 -23 -23 -22
-19 -19 -20 -20 -20 -21 -21 -22 -24 -24 -26 -27 -28 -29 -30 -31 -32 -32 -33 -32 -32 -31 -31 -32 -31 -32 -32 -32 -31 -32 -32 -32 -31 -31 -30 -28 -27 -26 -25 -25 -25 -24 -23
-19 -20 -20 -20 -21 -22 -22 -23 -25 -26 -27 -29 -30 -31 -32 -32 -33 -33 -33 -32 -32 -32 -31 -31 -31 -31 -32 -32 -31 -31 -32 -32 -32 -32 -31 -30 -29 -28 -26 -26 -25 -25 -24
-20 -20 -21 -21 -22 -23 -24 -25 -26 -28 -30 -31 -31 -32 -32 -32 -33 -33 -33 -32 -32 -32 -32 -32 -33 -33 -33 -33 -32 -32 -32 -32 -32 -32 -32 -32 -31 -30 -28 -27 -26 -26 -25
-21 -21 -21 -22 -23 -24 -26 -27 -29 -30 -31 -32 -32 -32 -33 -33 -33 -33 -33 -32 -32 -33 -33 -33 -33 -33 -33 -34 -33 -34 -33 -33 -32 -32 -32 -32 -32 -31 -30 -29 -27 -26 -26
-21 -22 -22 -23 -24 -25 -27 -29 -30 -32 -32 -32 -32 -33 -33 -33 -33 -33 -32 -32 -33 -33 -33 -33 -33 -34 -34 -34 -34 -34 -34 -34 -33 -33 -32 -32 -32 -32 -32 -30 -29 -27 -26
-22 -23 -23 -24 -26 -28 -29 -30 -32 -33 -33 -32 -32 -33 -33 -33 -33 -32 -32 -33 -33 -33 -34 -34 -34 -34 -34 -35 -35 -34 -34 -34 -34 -34 -33 -32 -32 -32 -32 -32 -31 -29 -28
-23 -23 -24 -26 -28 -29 -30 -31 -32 -33 -32 -32 -32 -33 -33 -33 -33 -33 -33 -33 -33 -33 -34 -34 -34 -35 -35 -36 -36 -35 -35 -35 -35 -35 -34 -33 -32 -32 -32 -32 -32 -31 -30
-23 -24 -26 -28 -29 -30 -31 -32 -33 -33 -32 -32 -33 -33 -33 -33 -32 -33 -33 -33 -33 -34 -34 -34 -35 -36 -36 -36 -36 -36 -36 -35 -35 -35 -35 -33 -33 -32 -32 -32 -32 -32 -31
-24 -26 -28 -29 -30 -31 -32 -33 -33 -33 -32 -33 -33 -33 -33 -33 -32 -33 -33 -33 -33 -34 -34 -34 -35 -36 -36 -37 -37 -37 -36 -36 -36 -36 -35 -34 -33 -33 -33 -33 -32 -33 -33
-26 -28 -29 -30 -31 -32 -33 -33 -33 -33 -33 -33 -33 -33 -33 -33 -33 -33 -33 -33 -33 -34 -34 -34 -35 -36 -36 -37 -37 -37 -37 -37 -37 -36 -35 -35 -33 -33 -33 -33 -33 -33 -33
-28 -29 -30 -31 -32 -32 -33 -33 -33 -33 -33 -33 -33 -33 -33 -33 -33 -33 -33 -33 -33 -34 -34 -34 -34 -35 -36 -37 -37 -37 -37 -37 -37 -36 -35 -34 -34 -33 -33 -33 -33 -33 -33
-29 -30 -31 -32 -32 -33 -33 -33 -33 -33 -33 -33 -33 -33 -33 -33 -33 -33 -33 -33 -33 -33 -34 -34 -34 -35 -36 -37 -37 -37 -37 -36 -36 -35 -35 -34 -34 -33 -32 -32 -32 -33 -33

GFSMA_500_temp_021.txt.gz
Temp
-15 -15 -15 -16 -16 -16 -16 -15 -16 -16 -16 -16 -16 -16 -16 -17 -17 -17 -17 -17 -17 -17 -17 -17 -16 -16 -16 -16 -16 -16 -15 -15 -15 -15 -15 -15 -15 -14 -14 -15 -14 -14 -14
-16 -16 -16 -16 -16 -16 -16 -16 -16 -17 -16 -16 -16 -17 -17 -17 -17 -17 -17 -17 -16 -16 -17 -17 -17 -17 -17 -16 -16 -16 -16 -15 -15 -15 -15 -15 -15 -15 -14 -14 -15 -14 -14
-16 -16 -16 -15 -16 -17 -17 -17 -17 -18 -18 -17 -17 -18 -17 -17 -17 -17 -16 -17 -17 -16 -16 -16 -17 -17 -17 -17 -17 -16 -16 -16 -16 -15 -15 -15 -16 -15 -15 -15 -15 -15 -14
-16 -16 -17 -17 -17 -18 -18 -18 -17 -17 -18 -18 -17 -17 -17 -17 -17 -17 -17 -16 -16 -17 -16 -16 -16 -16 -16 -16 -16 -16 -16 -16 -16 -16 -16 -15 -15 -16 -16 -15 -15 -15 -15
-17 -17 -17 -17 -17 -18 -18 -18 -18 -18 -17 -17 -17 -17 -17 -17 -17 -17 -17 -16 -16 -16 -16 -17 -16 -17 -16 -16 -16 -17 -16 -16 -16 -16 -16 -16 -16 -15 -15 -16 -15 -15 -15
-17 -17 -18 -19 -18 -18 -18 -18 -18 -18 -18 -18 -18 -18 -18 -18 -18 -18 -18 -18 -18 -18 -18 -18 -18 -17 -17 -17 -17 -17 -16 -16 -16 -16 -16 -16 -16 -16 -15 -15 -16 -15 -15
-18 -18 -18 -18 -18 -19 -19 -19 -19 -19 -19 -19 -19 -19 -19 -19 -19 -19 -18 -18 -18 -18 -18 -18 -18 -18 -18 -17 -17 -17 -18 -16 -15 -16 -16 -15 -15 -16 -16 -16 -15 -16 -16
-17 -18 -19 -19 -19 -19 -20 -19 -19 -19 -19 -19 -19 -18 -18 -19 -19 -19 -19 -19 -19 -19 -19 -19 -19 -18 -18 -18 -18 -18 -17 -17 -17 -17 -16 -16 -16 -15 -16 -16 -16 -16 -15
-18 -18 -19 -19 -19 -19 -19 -19 -19 -19 -19 -19 -19 -19 -19 -19 -19 -19 -19 -20 -20 -20 -20 -20 -20 -20 -19 -19 -19 -19 -19 -18 -18 -17 -17 -17 -16 -16 -16 -16 -16 -16 -16
-18 -18 -18 -19 -19 -19 -19 -19 -19 -19 -19 -19 -19 -19 -20 -20 -20 -20 -20 -20 -20 -21 -21 -21 -21 -21 -22 -22 -22 -22 -21 -21 -20 -20 -18 -18 -18 -17 -17 -16 -16 -16 -16
-18 -18 -18 -19 -19 -20 -20 -19 -19 -19 -19 -19 -20 -20 -20 -21 -21 -21 -20 -21 -21 -22 -24 -24 -25 -26 -27 -27 -27 -27 -26 -25 -24 -25 -24 -21 -19 -19 -18 -17 -17 -17 -17
-18 -18 -19 -19 -19 -20 -20 -19 -19 -19 -20 -20 -21 -21 -21 -21 -22 -22 -22 -23 -25 -26 -27 -28 -29 -29 -29 -29 -29 -29 -28 -28 -28 -28 -26 -25 -24 -22 -20 -18 -18 -18 -18
-19 -19 -19 -19 -20 -20 -20 -20 -20 -20 -21 -21 -21 -22 -22 -22 -23 -24 -26 -27 -28 -29 -30 -31 -31 -31 -30 -30 -29 -29 -29 -29 -29 -29 -29 -28 -26 -25 -24 -22 -20 -20 -19
-19 -19 -20 -20 -20 -20 -20 -20 -21 -21 -21 -21 -22 -22 -23 -24 -26 -27 -29 -30 -30 -31 -31 -31 -32 -31 -31 -31 -30 -30 -30 -30 -30 -29 -30 -31 -29 -28 -26 -25 -24 -22 -21
-19 -20 -20 -20 -20 -21 -21 -21 -21 -22 -22 -23 -23 -23 -25 -27 -28 -29 -30 -32 -32 -31 -31 -31 -31 -32 -31 -31 -31 -31 -30 -30 -30 -30 -30 -30 -30 -30 -29 -27 -26 -25 -23
-20 -20 -21 -21 -21 -21 -21 -22 -22 -23 -23 -23 -25 -26 -27 -29 -30 -31 -32 -32 -32 -32 -31 -32 -32 -31 -31 -31 -31 -31 -31 -31 -32 -31 -31 -30 -30 -31 -31 -30 -29 -26 -25
-20 -21 -21 -21 -22 -22 -22 -22 -23 -23 -23 -25 -27 -28 -29 -31 -31 -32 -32 -32 -32 -32 -31 -31 -32 -32 -31 -32 -32 -32 -32 -32 -32 -32 -32 -32 -31 -31 -30 -30 -30 -29 -28
-21 -21 -21 -22 -22 -22 -22 -23 -23 -23 -24 -27 -28 -30 -31 -32 -32 -33 -32 -32 -32 -32 -32 -32 -32 -32 -32 -32 -33 -33 -33 -33 -33 -33 -32 -33 -32 -32 -31 -31 -31 -30 -30
-21 -21 -22 -22 -22 -23 -23 -23 -24 -24 -27 -28 -30 -31 -32 -32 -33 -32 -32 -32 -32 -32 -32 -32 -32 -32 -33 -33 -33 -33 -33 -33 -33 -33 -33 -33 -33 -33 -32 -31 -31 -31 -31
-21 -22 -22 -23 -23 -23 -23 -23 -24 -26 -28 -30 -31 -32 -32 -33 -33 -32 -32 -32 -32 -32 -32 -32 -32 -33 -33 -33 -33 -33 -32 -33 -33 -33 -34 -34 -33 -33 -33 -32 -32 -32 -32
-22 -22 -22 -23 -23 -23 -23 -24 -25 -27 -29 -31 -32 -32 -33 -33 -33 -33 -33 -33 -33 -32 -32 -32 -33 -33 -33 -33 -33 -33 -32 -33 -34 -35 -35 -35 -35 -34 -34 -33 -33 -32 -32
-22 -22 -23 -24 -24 -24 -24 -25 -27 -29 -31 -32 -32 -33 -33 -32 -32 -32 -32 -33 -33 -32 -32 -32 -33 -33 -33 -33 -33 -33 -33 -34 -35 -36 -36 -36 -36 -35 -34 -34 -33 -32 -32
-23 -23 -24 -24 -23 -24 -25 -26 -28 -30 -32 -32 -33 -33 -33 -33 -33 -33 -33 -32 -32 -32 -32 -33 -33 -33 -33 -33 -33 -33 -34 -35 -35 -36 -37 -37 -37 -36 -35 -34 -33 -33 -33
-23 -24 -24 -24 -24 -24 -26 -28 -30 -31 -32 -33 -33 -33 -33 -33 -33 -33 -32 -32 -32 -32 -33 -33 -33 -33 -33 -33 -33 -33 -35 -35 -36 -37 -37 -37 -37 -36 -35 -34 -34 -34 -33
-24 -24 -24 -24 -25 -25 -28 -29 -31 -32 -33 -33 -33 -33 -33 -33 -32 -32 -32 -33 -33 -33 -33 -33 -33 -33 -33 -33 -33 -34 -35 -36 -37 -37 -37 -37 -37 -36 -35 -35 -34 -34 -33
-24 -24 -25 -25 -26 -27 -29 -31 -32 -33 -33 -33 -33 -33 -33 -33 -32 -32 -33 -33 -33 -33 -33 -33 -33 -33 -33 -33 -34 -34 -36 -37 -37 -37 -37 -37 -37 -36 -36 -35 -35 -34 -33

GFSMA_500_temp_024.txt.gz
Temp
-16 -15 -15 -16 -15 -15 -14 -14 -14 -15 -16 -16 -16 -16 -17 -17 -17 -17 -17 -18 -18 -17 -17 -17 -17 -16 -16 -16 -16 -16 -16 -16 -16 -16 -16 -16 -16 -16 -15 -15 -15 -15 -15
-15 -15 -15 -14 -15 -15 -16 -16 -16 -16 -16 -16 -17 -17 -17 -17 -17 -17 -17 -17 -18 -18 -17 -17 -17 -17 -17 -17 -17 -16 -16 -16 -16 -16 -16 -16 -16 -16 -16 -16 -16 -15 -15
-15 -15 -15 -15 -16 -16 -16 -17 -17 -17 -17 -17 -17 -17 -18 -18 -18 -18 -18 -18 -17 -17 -17 -17 -17 -17 -17 -17 -17 -17 -17 -16 -16 -16 -16 -16 -16 -16 -16 -16 -16 -16 -16
-15 -15 -15 -16 -16 -16 -17 -17 -17 -18 -18 -18 -18 -17 -17 -18 -18 -18 -17 -17 -17 -17 -17 -17 -17 -17 -17 -17 -17 -17 -17 -17 -16 -16 -16 -16 -16 -16 -16 -16 -16 -16 -16
-15 -15 -16 -16 -16 -17 -18 -18 -18 -18 -18 -18 -18 -18 -18 -18 -19 -19 -18 -18 -18 -18 -18 -18 -17 -17 -17 -17 -17 -17 -17 -16 -17 -16 -16 -16 -16 -16 -16 -16 -16 -16 -16
-15 -15 -16 -17 -17 -17 -17 -18 -18 -19 -20 -19 -19 -19 -19 -19 -19 -19 -19 -19 -19 -19 -18 -18 -18 -18 -17 -17 -17 -17 -17 -17 -16 -16 -16 -16 -16 -15 -16 -16 -16 -16 -16
-15 -15 -16 -16 -17 -17 -18 -18 -19 -19 -19 -19 -19 -19 -19 -19 -19 -19 -19 -19 -19 -19 -19 -18 -18 -18 -18 -18 -17 -17 -18 -17 -17 -17 -16 -16 -16 -16 -15 -15 -16 -16 -16
-15 -16 -17 -17 -18 -18 -19 -19 -18 -18 -19 -19 -19 -19 -19 -19 -19 -20 -20 -20 -19 -20 -20 -20 -20 -19 -19 -18 -18 -18 -18 -17 -17 -17 -17 -17 -16 -16 -16 -16 -15 -15 -16
-16 -16 -17 -17 -18 -18 -18 -18 -19 -19 -19 -20 -20 -20 -19 -19 -19 -19 -19 -20 -20 -20 -20 -20 -20 -20 -20 -19 -20 -19 -19 -19 -19 -18 -18 -18 -17 -17 -16 -16 -16 -16 -16
-16 -17 -17 -18 -18 -18 -19 -19 -19 -20 -20 -20 -20 -20 -20 -20 -19 -19 -20 -20 -20 -20 -21 -21 -22 -22 -22 -22 -22 -22 -22 -21 -21 -20 -20 -19 -19 -18 -17 -17 -17 -17 -17
-17 -17 -18 -18 -18 -18 -18 -19 -20 -20 -20 -20 -20 -20 -21 -21 -21 -21 -21 -21 -21 -22 -23 -24 -24 -25 -26 -26 -27 -27 -26 -25 -25 -25 -24 -23 -22 -20 -19 -18 -18 -17 -17
-17 -18 -18 -18 -19 -19 -19 -20 -20 -20 -20 -21 -21 -21 -21 -22 -22 -22 -22 -23 -23 -24 -26 -27 -28 -29 -29 -29 -29 -29 -29 -29 -28 -28 -27 -27 -26 -25 -23 -21 -19 -19 -18
-18 -18 -18 -19 -19 -19 -20 -20 -21 -21 -21 -21 -22 -22 -22 -22 -22 -23 -24 -25 -26 -26 -28 -30 -31 -31 -31 -31 -31 -30 -30 -30 -29 -29 -28 -29 -28 -27 -26 -25 -23 -21 -20
-18 -19 -19 -19 -19 -20 -20 -21 -21 -21 -22 -22 -22 -22 -22 -23 -23 -24 -26 -27 -28 -29 -29 -31 -32 -32 -32 -32 -31 -31 -31 -30 -30 -29 -29 -29 -29 -28 -28 -27 -26 -25 -24
-19 -19 -19 -19 -20 -20 -20 -21 -22 -22 -22 -22 -22 -22 -23 -23 -25 -27 -29 -29 -30 -30 -30 -31 -32 -32 -32 -31 -31 -31 -31 -31 -30 -30 -30 -30 -29 -29 -29 -28 -28 -27 -26
-20 -20 -20 -20 -20 -21 -21 -21 -22 -22 -22 -22 -23 -23 -23 -24 -27 -29 -30 -31 -31 -32 -31 -32 -32 -32 -32 -31 -31 -31 -31 -31 -31 -31 -31 -31 -30 -30 -30 -30 -29 -29 -28
-20 -20 -20 -20 -21 -21 -21 -22 -22 -22 -23 -23 -23 -24 -25 -27 -29 -31 -31 -32 -32 -32 -32 -32 -32 -32 -32 -32 -32 -32 -31 -32 -32 -32 -32 -32 -32 -32 -31 -30 -30 -30 -29
-20 -20 -20 -20 -21 -21 -21 -22 -22 -22 -23 -23 -23 -25 -26 -29 -30 -31 -32 -32 -33 -32 -32 -32 -32 -32 -32 -32 -32 -32 -32 -32 -32 -32 -32 -32 -32 -32 -32 -32 -31 -30 -30
-20 -20 -21 -21 -21 -22 -21 -22 -22 -23 -24 -23 -24 -26 -28 -29 -31 -32 -33 -32 -33 -32 -32 -32 -32 -32 -32 -32 -32 -32 -33 -33 -32 -32 -32 -31 -31 -31 -32 -32 -32 -32 -30
-20 -21 -21 -21 -22 -22 -22 -23 -23 -24 -24 -24 -25 -27 -29 -31 -32 -32 -33 -33 -32 -32 -32 -32 -32 -32 -32 -32 -33 -33 -33 -33 -32 -32 -31 -31 -31 -31 -32 -32 -32 -32 -31
-21 -21 -21 -22 -22 -22 -23 -23 -24 -24 -25 -26 -27 -29 -31 -31 -32 -33 -32 -32 -32 -32 -32 -32 -32 -32 -32 -33 -33 -33 -33 -32 -32 -32 -31 -31 -32 -33 -33 -33 -33 -33 -32
-21 -22 -22 -22 -22 -22 -24 -24 -24 -25 -26 -27 -29 -30 -32 -32 -32 -32 -32 -32 -32 -32 -32 -32 -32 -32 -33 -33 -33 -33 -33 -32 -31 -32 -31 -34 -34 -35 -36 -34 -33 -33 -32
-21 -22 -22 -22 -23 -24 -24 -25 -25 -26 -28 -29 -30 -31 -32 -32 -32 -32 -32 -32 -32 -32 -32 -32 -32 -33 -33 -33 -33 -33 -32 -32 -32 -33 -34 -35 -35 -36 -37 -35 -34 -34 -34
-22 -22 -24 -24 -24 -24 -25 -26 -26 -28 -29 -30 -31 -32 -32 -33 -32 -32 -32 -32 -32 -32 -32 -32 -33 -33 -33 -33 -33 -33 -32 -33 -33 -34 -35 -36 -37 -37 -37 -36 -36 -35 -34
-23 -24 -25 -24 -24 -25 -27 -27 -28 -29 -30 -31 -32 -32 -33 -33 -33 -32 -32 -32 -32 -32 -33 -33 -33 -33 -33 -33 -33 -33 -33 -34 -35 -36 -36 -37 -37 -37 -37 -37 -36 -35 -35
-25 -25 -25 -25 -26 -26 -28 -28 -29 -30 -31 -32 -32 -33 -33 -33 -33 -33 -33 -32 -33 -33 -33 -33 -34 -34 -33 -33 -33 -33 -33 -34 -35 -36 -36 -37 -37 -37 -37 -37 -36 -35 -35

GFSMA_500_temp_027.txt.gz
Temp
-14 -14 -14 -15 -14 -15 -15 -14 -14 -15 -16 -16 -16 -16 -16 -16 -17 -17 -16 -17 -17 -17 -17 -17 -17 -17 -17 -17 -17 -17 -17 -16 -16 -16 -16 -16 -16 -16 -16 -16 -16 -15 -15
-15 -15 -15 -15 -15 -15 -15 -16 -15 -16 -17 -17 -17 -17 -16 -17 -17 -17 -17 -17 -17 -17 -17 -18 -18 -18 -18 -17 -17 -17 -17 -17 -17 -16 -16 -16 -16 -16 -16 -16 -16 -16 -15
-15 -15 -15 -15 -15 -15 -16 -16 -16 -16 -16 -17 -17 -17 -17 -17 -18 -18 -18 -18 -17 -18 -18 -18 -18 -18 -18 -18 -18 -18 -18 -18 -17 -17 -17 -16 -16 -16 -16 -16 -16 -16 -16
-15 -15 -15 -15 -16 -16 -16 -16 -17 -17 -17 -17 -17 -18 -18 -18 -19 -19 -19 -19 -18 -18 -18 -18 -18 -17 -17 -18 -18 -18 -18 -17 -18 -18 -17 -17 -17 -17 -16 -16 -16 -16 -16
-15 -15 -15 -15 -16 -16 -16 -17 -17 -17 -17 -17 -18 -18 -18 -18 -19 -19 -19 -20 -19 -19 -19 -19 -19 -18 -18 -17 -17 -18 -18 -18 -17 -17 -17 -17 -17 -17 -17 -16 -16 -16 -16
-15 -15 -15 -16 -16 -17 -17 -17 -17 -17 -17 -18 -18 -18 -18 -19 -19 -19 -19 -19 -19 -19 -19 -19 -19 -18 -18 -18 -18 -18 -18 -17 -18 -18 -17 -17 -17 -17 -17 -17 -16 -16 -16
-15 -15 -16 -16 -17 -17 -17 -17 -17 -17 -18 -18 -18 -19 -19 -19 -19 -20 -20 -20 -19 -20 -20 -20 -19 -19 -19 -19 -18 -18 -18 -18 -18 -18 -17 -18 -18 -17 -17 -17 -17 -16 -16
-15 -16 -16 -16 -16 -17 -17 -18 -18 -18 -18 -18 -19 -19 -19 -20 -20 -20 -20 -20 -20 -20 -20 -20 -20 -20 -20 -19 -19 -19 -19 -19 -18 -18 -18 -18 -18 -18 -18 -18 -18 -17 -17
-16 -16 -16 -17 -17 -17 -18 -18 -18 -18 -18 -19 -19 -19 -19 -19 -19 -19 -19 -20 -21 -21 -21 -21 -21 -21 -22 -21 -21 -21 -20 -20 -20 -19 -19 -19 -19 -18 -18 -18 -17 -18 -18
-16 -16 -17 -17 -17 -18 -18 -18 -19 -19 -19 -19 -19 -19 -20 -20 -20 -20 -20 -21 -21 -21 -22 -22 -22 -23 -24 -25 -24 -24 -24 -23 -22 -22 -22 -21 -21 -20 -19 -19 -18 -18 -17
-16 -16 -17 -17 -18 -18 -18 -19 -19 -19 -19 -20 -20 -20 -20 -21 -21 -21 -21 -22 -22 -22 -22 -22 -24 -26 -27 -27 -27 -27 -27 -26 -26 -25 -25 -25 -24 -23 -22 -20 -19 -18 -18
-17 -17 -17 -18 -18 -19 -19 -19 -20 -20 -19 -20 -20 -20 -21 -21 -21 -22 -22 -22 -23 -22 -23 -26 -27 -28 -29 -29 -29 -29 -30 -29 -29 -28 -28 -28 -28 -27 -26 -24 -22 -21 -20
-17 -18 -18 -18 -19 -19 -19 -20 -20 -20 -20 -20 -21 -21 -21 -21 -22 -23 -23 -23 -22 -23 -25 -28 -30 -30 -31 -31 -31 -31 -31 -31 -30 -30 -29 -29 -29 -29 -28 -27 -26 -25 -23
-18 -18 -19 -19 -20 -20 -20 -20 -20 -20 -21 -21 -21 -21 -21 -22 -23 -23 -23 -23 -24 -24 -27 -30 -31 -32 -32 -32 -31 -32 -32 -31 -31 -30 -30 -30 -29 -29 -29 -28 -28 -27 -26
-19 -19 -19 -19 -20 -20 -20 -20 -21 -21 -21 -22 -21 -21 -22 -23 -23 -23 -23 -24 -25 -27 -28 -30 -32 -32 -32 -32 -32 -32 -32 -31 -31 -31 -30 -30 -30 -29 -29 -29 -28 -28 -28
-19 -19 -20 -20 -20 -20 -20 -21 -21 -21 -21 -21 -22 -22 -23 -24 -23 -23 -24 -26 -29 -30 -30 -31 -32 -32 -32 -32 -32 -32 -31 -31 -31 -31 -31 -31 -30 -30 -30 -30 -29 -29 -28
-20 -20 -20 -20 -20 -20 -20 -20 -21 -21 -21 -22 -22 -23 -24 -24 -24 -25 -26 -28 -30 -32 -31 -31 -32 -32 -31 -32 -32 -32 -31 -31 -31 -31 -31 -31 -31 -31 -31 -31 -30 -30 -29
-19 -19 -20 -20 -20 -20 -21 -21 -21 -22 -22 -22 -23 -24 -24 -24 -25 -26 -29 -30 -32 -32 -31 -30 -32 -32 -32 -32 -31 -31 -31 -32 -31 -32 -32 -32 -32 -32 -32 -32 -31 -31 -31
-19 -19 -19 -20 -20 -21 -21 -22 -22 -22 -23 -24 -24 -24 -24 -25 -27 -28 -30 -32 -32 -32 -32 -31 -31 -32 -32 -32 -32 -32 -32 -32 -32 -33 -32 -32 -32 -32 -32 -31 -31 -31 -31
-19 -20 -20 -21 -21 -21 -22 -22 -22 -23 -24 -24 -24 -25 -26 -27 -28 -31 -32 -32 -32 -32 -32 -32 -32 -31 -32 -32 -32 -32 -32 -33 -33 -32 -32 -32 -31 -31 -31 -31 -31 -31 -30
-20 -21 -21 -21 -21 -22 -23 -23 -25 -25 -24 -24 -26 -26 -27 -28 -30 -31 -32 -33 -32 -32 -32 -32 -32 -32 -32 -32 -32 -33 -33 -32 -33 -32 -31 -31 -31 -31 -31 -31 -31 -31 -31
-21 -21 -21 -22 -22 -23 -25 -25 -25 -25 -25 -26 -27 -27 -29 -30 -32 -32 -32 -33 -33 -32 -32 -32 -32 -32 -32 -32 -32 -33 -33 -33 -32 -32 -31 -32 -31 -31 -32 -32 -32 -32 -32
-21 -22 -22 -23 -23 -25 -25 -25 -25 -26 -27 -27 -28 -29 -31 -32 -33 -33 -33 -33 -32 -32 -32 -31 -32 -32 -32 -32 -33 -33 -33 -32 -32 -32 -32 -32 -32 -33 -34 -35 -35 -35 -34
-22 -22 -23 -24 -25 -25 -25 -25 -27 -27 -28 -29 -30 -31 -32 -33 -33 -33 -34 -33 -33 -32 -32 -32 -32 -32 -32 -33 -33 -33 -33 -33 -32 -32 -32 -34 -34 -35 -36 -36 -36 -36 -35
-22 -23 -24 -25 -25 -25 -26 -28 -28 -29 -29 -30 -31 -32 -33 -33 -34 -34 -34 -34 -33 -33 -33 -33 -33 -33 -33 -33 -33 -33 -33 -33 -33 -33 -34 -35 -36 -36 -37 -37 -37 -37 -36
-24 -24 -25 -25 -26 -28 -28 -29 -29 -30 -30 -31 -32 -33 -33 -34 -34 -34 -34 -34 -34 -33 -33 -33 -33 -33 -33 -33 -34 -33 -33 -33 -33 -34 -35 -36 -36 -36 -37 -37 -38 -37 -37

GFSMA_500_temp_030.txt.gz
Temp
-14 -14 -15 -14 -14 -14 -14 -14 -14 -14 -14 -14 -14 -15 -15 -15 -16 -16 -16 -16 -16 -17 -17 -17 -17 -17 -18 -18 -18 -18 -18 -18 -18 -17 -17 -17 -17 -17 -17 -16 -16 -16 -16
-14 -15 -14 -14 -14 -14 -14 -14 -14 -15 -15 -15 -15 -16 -16 -16 -16 -16 -16 -16 -17 -17 -17 -17 -17 -18 -18 -18 -18 -18 -18 -18 -18 -18 -17 -17 -17 -17 -17 -17 -17 -16 -16
-15 -15 -14 -14 -15 -15 -15 -15 -15 -15 -16 -16 -17 -17 -17 -17 -17 -17 -18 -17 -17 -18 -18 -17 -17 -17 -18 -18 -18 -18 -19 -19 -18 -18 -18 -18 -17 -17 -17 -17 -17 -17 -16
-15 -14 -15 -15 -15 -15 -16 -16 -16 -16 -16 -17 -17 -17 -17 -18 -18 -18 -18 -18 -18 -18 -19 -18 -19 -18 -18 -18 -18 -18 -18 -19 -19 -19 -18 -19 -18 -18 -17 -17 -17 -17 -17
-15 -15 -15 -15 -16 -16 -16 -16 -17 -17 -17 -18 -18 -18 -18 -18 -18 -19 -19 -19 -19 -19 -19 -19 -19 -19 -19 -19 -19 -18 -18 -18 -18 -18 -19 -18 -18 -19 -18 -18 -17 -17 -17
-15 -15 -15 -16 -16 -16 -17 -17 -17 -18 -18 -18 -18 -18 -18 -18 -19 -19 -19 -19 -19 -19 -19 -19 -19 -19 -18 -18 -18 -18 -18 -18 -18 -18 -18 -18 -19 -19 -19 -19 -18 -18 -17
-15 -16 -16 -16 -16 -17 -17 -17 -18 -18 -18 -18 -18 -19 -19 -19 -19 -20 -20 -20 -20 -20 -20 -20 -19 -19 -20 -19 -20 -20 -20 -20 -20 -19 -18 -18 -18 -18 -18 -18 -18 -18 -18
-16 -16 -16 -17 -17 -17 -17 -17 -18 -18 -18 -18 -19 -19 -19 -20 -20 -20 -20 -20 -20 -21 -21 -21 -21 -21 -21 -21 -21 -21 -20 -21 -20 -20 -19 -18 -18 -17 -18 -18 -18 -18 -18
-16 -16 -17 -17 -17 -17 -17 -18 -18 -18 -19 -19 -19 -19 -19 -19 -20 -20 -20 -21 -21 -21 -22 -22 -22 -22 -22 -22 -22 -22 -22 -21 -21 -21 -22 -21 -20 -19 -18 -18 -18 -18 -18
-16 -17 -17 -17 -17 -17 -18 -18 -19 -19 -19 -19 -19 -20 -20 -20 -20 -20 -20 -21 -21 -21 -21 -21 -22 -22 -22 -23 -22 -22 -22 -24 -24 -24 -25 -25 -24 -22 -21 -19 -18 -18 -18
-16 -17 -17 -17 -17 -18 -18 -19 -19 -19 -19 -19 -19 -19 -20 -20 -20 -21 -21 -21 -21 -22 -22 -23 -23 -23 -22 -23 -23 -25 -26 -27 -27 -27 -27 -27 -27 -26 -25 -23 -22 -21 -19
-17 -17 -17 -18 -18 -18 -19 -19 -19 -19 -19 -19 -19 -20 -20 -20 -21 -21 -21 -21 -21 -22 -23 -23 -23 -23 -23 -24 -26 -28 -29 -30 -29 -29 -29 -29 -28 -28 -28 -27 -25 -23 -22
-17 -18 -18 -18 -19 -19 -19 -19 -19 -19 -19 -20 -20 -20 -21 -21 -22 -22 -22 -22 -22 -23 -24 -23 -24 -24 -25 -27 -29 -30 -30 -31 -31 -30 -30 -30 -30 -30 -30 -29 -28 -26 -25
-18 -18 -18 -19 -19 -19 -19 -20 -19 -20 -20 -20 -21 -21 -22 -22 -22 -22 -22 -23 -24 -24 -24 -24 -24 -26 -28 -30 -31 -31 -31 -31 -31 -31 -31 -30 -30 -30 -30 -30 -29 -29 -28
-19 -19 -19 -20 -19 -19 -20 -20 -20 -20 -20 -20 -21 -21 -21 -22 -22 -23 -24 -24 -24 -24 -24 -24 -26 -28 -30 -31 -31 -31 -31 -31 -31 -31 -31 -31 -30 -30 -30 -30 -29 -29 -29
-19 -19 -19 -19 -20 -20 -19 -20 -20 -20 -21 -22 -22 -22 -22 -23 -23 -24 -25 -25 -25 -25 -25 -26 -27 -30 -31 -31 -31 -31 -31 -31 -31 -31 -31 -31 -31 -30 -30 -30 -30 -29 -29
-20 -20 -20 -20 -19 -20 -20 -20 -21 -21 -22 -22 -22 -22 -23 -24 -25 -25 -25 -25 -26 -26 -27 -28 -30 -31 -31 -31 -31 -31 -31 -31 -31 -31 -31 -31 -31 -31 -30 -30 -30 -30 -30
-20 -19 -19 -19 -20 -20 -20 -20 -21 -21 -22 -22 -23 -23 -25 -25 -25 -25 -26 -26 -27 -28 -30 -30 -31 -32 -32 -31 -31 -31 -31 -31 -31 -31 -31 -31 -31 -31 -31 -31 -31 -31 -31
-19 -19 -19 -20 -20 -20 -21 -22 -22 -22 -22 -23 -24 -25 -26 -25 -25 -26 -27 -28 -29 -30 -31 -32 -32 -32 -32 -31 -31 -31 -31 -31 -32 -32 -32 -32 -32 -32 -32 -32 -32 -32 -31
-19 -19 -20 -20 -21 -21 -22 -22 -22 -23 -24 -25 -26 -26 -25 -26 -27 -28 -29 -30 -31 -32 -32 -33 -33 -33 -32 -31 -31 -30 -31 -32 -32 -33 -32 -32 -32 -32 -32 -31 -31 -31 -31
-20 -20 -21 -21 -22 -23 -23 -23 -24 -25 -26 -26 -26 -26 -27 -28 -29 -30 -31 -31 -32 -33 -33 -33 -33 -33 -32 -32 -31 -31 -31 -32 -33 -33 -32 -32 -32 -31 -31 -30 -31 -30 -30
-20 -21 -22 -22 -23 -24 -24 -25 -25 -26 -26 -27 -27 -28 -29 -30 -30 -31 -32 -32 -33 -33 -34 -33 -33 -33 -32 -32 -32 -32 -32 -33 -33 -33 -32 -32 -31 -31 -31 -30 -30 -30 -30
-22 -23 -23 -24 -24 -24 -25 -26 -26 -27 -28 -28 -29 -30 -30 -31 -31 -32 -33 -33 -34 -34 -33 -33 -33 -32 -32 -32 -32 -32 -32 -33 -33 -32 -32 -33 -31 -31 -31 -31 -31 -31 -31
-22 -23 -24 -24 -25 -26 -26 -27 -28 -29 -29 -30 -30 -31 -31 -31 -32 -33 -34 -34 -34 -34 -34 -33 -33 -33 -33 -33 -33 -33 -33 -33 -33 -32 -32 -33 -32 -32 -33 -34 -34 -35 -34
-23 -23 -24 -25 -26 -26 -28 -29 -29 -30 -30 -30 -30 -31 -31 -32 -33 -33 -34 -35 -35 -34 -34 -34 -33 -33 -33 -33 -33 -33 -33 -33 -33 -33 -32 -33 -33 -34 -35 -35 -36 -36 -36
-24 -24 -25 -26 -27 -29 -30 -30 -30 -30 -30 -30 -31 -32 -32 -33 -33 -34 -35 -35 -35 -35 -35 -34 -34 -33 -33 -33 -33 -33 -34 -34 -33 -33 -33 -33 -34 -35 -35 -36 -36 -37 -37